Location: Unspecified
(0.0000°N, 0.0000°E)
Time: 15:23:31
(UTC+00:00)

deb Delta 126 - Pass Details

Date: 16 February 2026
Orbit: 1458 x 1580 km, 101.9° (Epoch: 6 March)

Event Time Altitude Azimuth Distance (km) Brightness Sun altitude
Rises 05:12:54 0° 340° (NNW) 4,746 ? -14.9°
Reaches altitude 10° 05:17:25 10° 319° (NW) 3,772 ? -13.8°
Enters shadow 05:21:24 15° 292° (WNW) 3,387 ? -12.9°
Exits shadow 05:24:11 14° 271° (W) 3,481 ? -12.2°
Drops below altitude 10° 05:26:30 10° 256° (WSW) 3,776 ? -11.6°
Sets 05:31:07 0° 235° (SW) 4,752 ? -10.5°
